Showing default

GOES 11, 26352

Orbit data source: Space-Track

GOES 11, 26352 is a payload satellite owned by NOAA (US) in GEO that was launched on Wed, 03 May 2000 UTC via an ATLAS IIA launch vehicle from the Air Force Eastern Test Range (AFETR). Payloads include a variety of satellites, spacecraft, and rockets equipped with specific instruments for various scientific and technological missions. These include communications satellites like Starlink; space stations such as the ISS; scientific satellites like the Hubble; Earth observation satellites from companies like Planet Labs, Umbra, and HawkEye 360; GPS; miniature CubeSats for education and research; and military/defense satellites.

Not visible in the next 10 days
GOES 11 details
Identifier
26352, 2000-022A
Orbit
GEO
Last TLE update1 day ago
Origin
Flag of USNOAA (US)
ManufacturerSS/Loral
MissionNon-operational Civil Weather
Bus & MotorFS-1300, R-4D-11-164
Mass2,105 kg wet, 980 kg dry
Launch date (UTC)
2000-05-03 (25 years ago)
Launch vehicle
ATLAS IIA
Launch site
Air Force Eastern Test Range (AFETR)
Object type
Payload
Rocket body
Debris
Shape & HBRBox + 2 Pan, 26.9 m
Radar Cross Section30.986 m², Large (>1 m²)

Expand to show TLE details & history

TLE from 1 day ago
0 GOES 11
1 26352U 00022A   24347.68586535 -.00000096  00000-0  00000-0 0  9994
2 26352  10.6281  51.6304 0005950 212.9498 166.1577  0.99040591 47013
Epoch: 2024-12-12T16:27Z
Definitive object data (Epoch: 2024-12-12T16:27:38.766Z)
Latitude3.48639°
Longitude101.66866°
Altitude36,159.163 km
Speed3.06 km/s
True Right ascension04h 41m 46s
True Declination3° 28' 58"
Sunlit
Object was in daylight at TLE epoch
Visualization TLE readout
Latitude10.59542°
Longitude178.89197°
Altitude36,145.838 km
Speed3.061 km/s
Apparent Right ascension09h 41m 42s
Apparent Declination4° 36' 36"
Sunlit
Object is in daylight
Visualization observer readout
Local Sidereal Time20:23:53
Azimuth333.458° NNW
Elevation-42.011°
Doppler factor1
Orbital elements
Apogee altitude36,161.619 km
Perigee altitude36,111.027 km
Semi-major axis42,514.46 km
Eccentricity0.000595
Inclination10.6281°
RAAN51.6304°
Arg. of periapsis212.9498°
True anomaly166.174°
Mean anomaly166.1577°
Eccentric anomaly166.16585°
Mean motion0.24759 °/min
BSTARUnknown
Orbital period1454 mins
Loading historical data...
26352 neighbors
Authenticating...
Loading maneuver chart data...
Loading historical data...
Loading historical data...
Loading historical data...
Loading historical data...
Loading historical data...
Loading historical data...
Loading historical data...
Other satellites on launch #22 in the year 2000 (2000-05-03 UTC)

GOES 11 Visibility forecast

Observer location: undefined°, undefined

GOES 11 is not visible in the next 10 days
Span
Click to sort rows by Start time (UTC) header in descending order
Start Az.
Max El. time (UTC)
Max El. Az.
Max El.
End time (UTC)
End Az.
|